VPBKM VTSP-WSSL

Flight info

Callsign VPBKM
Flight time 1h 22m
Altitude 37000
Route REBED1A REBED B579 VPL W531 VIH A464 VKL Y507 MAKNA Y511 TOPOR A464 LELIB W401 OMKOM
Aircraft CL60/M-SBDE2E3FGHIJ1RWXYZ/LB1

Departure

Time 2026-04-25 07:44
Airport Phuket International Airport (VTSP)

Arrival

Time 2026-04-25 09:06
Airport Seletar Airport (WSSL)
Time Latitude Longitude Altitude Speed Heading
2026-04-25 07:19 8.10773 98.30257 34 ft 0 kts 285°
2026-04-25 07:36 8.10768 98.30248 34 ft 3 kts 197°
2026-04-25 07:36 8.10759 98.30276 34 ft 6 kts 89°
2026-04-25 07:37 8.10763 98.30332 35 ft 9 kts 64°
2026-04-25 07:37 8.10831 98.30358 35 ft 12 kts 12°
2026-04-25 07:37 8.10931 98.30384 33 ft 17 kts 20°
2026-04-25 07:37 8.11022 98.30422 31 ft 12 kts 43°
2026-04-25 07:38 8.11049 98.30508 31 ft 15 kts 84°
2026-04-25 07:38 8.11060 98.30623 33 ft 16 kts 84°
2026-04-25 07:38 8.11071 98.30746 36 ft 18 kts 85°
2026-04-25 07:38 8.11082 98.30864 37 ft 17 kts 83°
2026-04-25 07:39 8.11119 98.30988 38 ft 19 kts 69°
2026-04-25 07:39 8.11134 98.31133 39 ft 22 kts 85°
2026-04-25 07:39 8.11149 98.31287 41 ft 13 kts 84°
2026-04-25 07:39 8.11150 98.31297 42 ft 0 kts 84°
2026-04-25 07:40 8.11150 98.31300 42 ft 3 kts 84°
2026-04-25 07:40 8.11154 98.31342 43 ft 7 kts 84°
2026-04-25 07:40 8.11159 98.31398 45 ft 8 kts 84°
2026-04-25 07:41 8.11165 98.31461 47 ft 11 kts 84°
2026-04-25 07:41 8.11175 98.31572 53 ft 20 kts 85°
2026-04-25 07:41 8.11190 98.31718 61 ft 22 kts 85°
2026-04-25 07:41 8.11206 98.31903 71 ft 26 kts 85°
2026-04-25 07:42 8.11223 98.32089 78 ft 26 kts 84°
2026-04-25 07:42 8.11240 98.32277 80 ft 28 kts 84°
2026-04-25 07:42 8.11252 98.32388 80 ft 10 kts 83°
2026-04-25 07:42 8.11299 98.32435 79 ft 12 kts 351°
2026-04-25 07:43 8.11348 98.32356 80 ft 14 kts 290°
2026-04-25 07:43 8.11376 98.32259 80 ft 17 kts 268°
2026-04-25 07:43 8.11344 98.31907 74 ft 103 kts 264°
2026-04-25 07:43 8.11254 98.30926 314 ft 165 kts 265°
2026-04-25 07:44 8.11168 98.29729 1106 ft 178 kts 266°
2026-04-25 07:44 8.11058 98.28468 1900 ft 188 kts 265°
2026-04-25 07:44 8.10928 98.27075 2439 ft 206 kts 265°
2026-04-25 07:44 8.10643 98.25581 2936 ft 231 kts 244°
2026-04-25 07:45 8.09516 98.24397 3453 ft 242 kts 204°
2026-04-25 07:45 8.07853 98.24101 4003 ft 243 kts 177°
2026-04-25 07:45 8.06102 98.24144 4527 ft 264 kts 176°
2026-04-25 07:45 8.04212 98.24191 5447 ft 279 kts 176°
2026-04-25 07:46 8.02267 98.24226 6596 ft 285 kts 177°
2026-04-25 07:46 8.00299 98.24478 7801 ft 286 kts 159°
2026-04-25 07:46 7.98618 98.25473 8971 ft 285 kts 134°
2026-04-25 07:46 7.97409 98.27026 10120 ft 287 kts 123°
2026-04-25 07:47 7.96241 98.28721 10942 ft 303 kts 123°
2026-04-25 07:47 7.94998 98.30512 11583 ft 324 kts 124°
2026-04-25 07:47 7.93660 98.32435 12198 ft 343 kts 124°
2026-04-25 07:47 7.92270 98.34431 12970 ft 353 kts 124°
2026-04-25 07:48 7.90846 98.36475 13823 ft 360 kts 124°
2026-04-25 07:48 7.89376 98.38584 14714 ft 365 kts 124°
2026-04-25 07:48 7.87918 98.40675 15591 ft 368 kts 123°
2026-04-25 07:48 7.86432 98.42805 16394 ft 373 kts 123°
2026-04-25 07:49 7.84930 98.44958 17167 ft 378 kts 123°
2026-04-25 07:49 7.83413 98.47133 17941 ft 382 kts 123°
2026-04-25 07:49 7.81865 98.49350 18646 ft 387 kts 123°
2026-04-25 07:49 7.80294 98.51601 19306 ft 393 kts 123°
2026-04-25 07:50 7.78696 98.53889 19989 ft 397 kts 124°
2026-04-25 07:50 7.77097 98.56178 20600 ft 402 kts 124°
2026-04-25 07:50 7.75478 98.58495 21215 ft 407 kts 124°
2026-04-25 07:50 7.73852 98.60823 21804 ft 412 kts 124°
2026-04-25 07:51 7.72026 98.63085 22407 ft 416 kts 135°
2026-04-25 07:51 7.69811 98.64966 22943 ft 422 kts 139°
2026-04-25 07:51 7.67499 98.66857 23520 ft 426 kts 140°
2026-04-25 07:51 7.65170 98.68771 24081 ft 431 kts 139°
2026-04-25 07:52 7.62856 98.70673 24621 ft 434 kts 139°
2026-04-25 07:52 7.60501 98.72607 25145 ft 438 kts 139°
2026-04-25 07:52 7.58122 98.74561 25631 ft 442 kts 139°
2026-04-25 07:52 7.55718 98.76537 26098 ft 446 kts 140°
2026-04-25 07:53 7.53296 98.78526 26544 ft 451 kts 140°
2026-04-25 07:53 7.50850 98.80535 26982 ft 454 kts 140°
2026-04-25 07:53 7.48378 98.82565 27439 ft 458 kts 140°
2026-04-25 07:53 7.45921 98.84582 27865 ft 461 kts 140°
2026-04-25 07:54 7.43435 98.86621 28283 ft 464 kts 140°
2026-04-25 07:54 7.40897 98.88702 28697 ft 467 kts 139°
2026-04-25 07:54 7.38347 98.90793 29108 ft 469 kts 140°
2026-04-25 07:54 7.35807 98.92875 29474 ft 472 kts 140°
2026-04-25 07:55 7.33269 98.94955 29816 ft 475 kts 140°
2026-04-25 07:55 7.30681 98.97076 30138 ft 477 kts 140°
2026-04-25 07:55 7.28087 98.99202 30457 ft 479 kts 140°
2026-04-25 07:55 7.25512 99.01311 30743 ft 481 kts 140°
2026-04-25 07:56 7.22901 99.03450 31009 ft 483 kts 140°
2026-04-25 07:56 7.20277 99.05599 31274 ft 484 kts 140°
2026-04-25 07:56 7.17672 99.07732 31519 ft 485 kts 140°
2026-04-25 07:56 7.15022 99.09902 31744 ft 487 kts 140°
2026-04-25 07:57 7.12387 99.12060 31953 ft 488 kts 140°
2026-04-25 07:57 7.09753 99.14216 32121 ft 490 kts 140°
2026-04-25 07:57 7.07106 99.16383 32308 ft 491 kts 140°
2026-04-25 07:57 7.04455 99.18552 32484 ft 492 kts 140°
2026-04-25 07:58 7.01756 99.20760 32676 ft 493 kts 140°
2026-04-25 07:58 6.99116 99.22920 32857 ft 494 kts 140°
2026-04-25 07:58 6.96438 99.25111 32981 ft 495 kts 140°
2026-04-25 07:58 6.93754 99.27306 33135 ft 496 kts 140°
2026-04-25 07:59 6.91063 99.29506 33277 ft 497 kts 140°
2026-04-25 07:59 6.88336 99.31735 33352 ft 499 kts 140°
2026-04-25 07:59 6.85618 99.33958 33481 ft 499 kts 140°
2026-04-25 07:59 6.82932 99.36153 33648 ft 499 kts 140°
2026-04-25 08:00 6.80245 99.38349 33899 ft 496 kts 140°
2026-04-25 08:00 6.77574 99.40532 34623 ft 486 kts 141°
2026-04-25 08:00 6.74991 99.42641 35458 ft 475 kts 141°
2026-04-25 08:00 6.72439 99.44727 36105 ft 468 kts 141°
2026-04-25 08:01 6.69909 99.46793 36562 ft 464 kts 141°
2026-04-25 08:01 6.67388 99.48852 36813 ft 465 kts 141°
2026-04-25 08:01 6.62322 99.52988 36822 ft 471 kts 141°
2026-04-25 08:02 6.57224 99.57149 36822 ft 470 kts 141°
2026-04-25 08:02 6.52132 99.61304 36825 ft 469 kts 141°
2026-04-25 08:03 6.47057 99.65443 36824 ft 469 kts 141°
2026-04-25 08:03 6.41895 99.69513 36824 ft 469 kts 142°
2026-04-25 08:04 6.36711 99.73577 36827 ft 469 kts 142°
2026-04-25 08:04 6.31500 99.77601 36828 ft 470 kts 143°
2026-04-25 08:05 6.26551 99.81392 36829 ft 470 kts 143°
2026-04-25 08:05 6.21314 99.85403 36826 ft 470 kts 143°
2026-04-25 08:06 6.16096 99.89400 36822 ft 470 kts 143°
2026-04-25 08:06 6.10885 99.93390 36824 ft 470 kts 142°
2026-04-25 08:07 6.05694 99.97365 36821 ft 470 kts 142°
2026-04-25 08:07 6.00442 100.01373 36825 ft 471 kts 143°
2026-04-25 08:08 5.95185 100.05349 36825 ft 470 kts 143°
2026-04-25 08:08 5.89936 100.09319 36828 ft 470 kts 143°
2026-04-25 08:09 5.84679 100.13296 36824 ft 470 kts 143°
2026-04-25 08:09 5.79454 100.17250 36828 ft 469 kts 143°
2026-04-25 08:10 5.74219 100.21210 36828 ft 469 kts 143°
2026-04-25 08:10 5.68999 100.25158 36826 ft 469 kts 143°
2026-04-25 08:11 5.63777 100.29107 36831 ft 469 kts 143°
2026-04-25 08:11 5.58537 100.33067 36831 ft 468 kts 143°
2026-04-25 08:12 5.53317 100.37013 36832 ft 468 kts 143°
2026-04-25 08:12 5.48106 100.40951 36834 ft 467 kts 143°
2026-04-25 08:13 5.42881 100.44898 36835 ft 467 kts 143°
2026-04-25 08:14 5.35091 100.50781 36835 ft 466 kts 143°
2026-04-25 08:14 5.29880 100.54716 36840 ft 466 kts 143°
2026-04-25 08:15 5.24682 100.58639 36835 ft 466 kts 143°
2026-04-25 08:15 5.19479 100.62567 36838 ft 465 kts 143°
2026-04-25 08:16 5.14285 100.66486 36824 ft 464 kts 143°
2026-04-25 08:16 5.09106 100.70393 36828 ft 464 kts 143°
2026-04-25 08:17 5.03949 100.74283 36828 ft 464 kts 143°
2026-04-25 08:17 4.98741 100.78210 36835 ft 464 kts 143°
2026-04-25 08:18 4.93568 100.82109 36850 ft 464 kts 143°
2026-04-25 08:18 4.88413 100.85995 36858 ft 463 kts 143°
2026-04-25 08:19 4.83230 100.89902 36867 ft 463 kts 143°
2026-04-25 08:19 4.78069 100.93792 36861 ft 462 kts 143°
2026-04-25 08:20 4.72925 100.97668 36853 ft 462 kts 143°
2026-04-25 08:20 4.67779 101.01545 36859 ft 462 kts 143°
2026-04-25 08:21 4.62612 101.05437 36865 ft 462 kts 143°
2026-04-25 08:21 4.57216 101.08994 36869 ft 462 kts 153°
2026-04-25 08:22 4.51151 101.11205 36857 ft 461 kts 163°
2026-04-25 08:22 4.44968 101.12997 36854 ft 460 kts 163°
2026-04-25 08:23 4.38811 101.14786 36845 ft 460 kts 163°
2026-04-25 08:23 4.32605 101.16589 36836 ft 460 kts 163°
2026-04-25 08:24 4.26454 101.18375 36826 ft 460 kts 163°
2026-04-25 08:24 4.20273 101.20170 36821 ft 460 kts 163°
2026-04-25 08:25 4.14087 101.21966 36821 ft 459 kts 163°
2026-04-25 08:25 4.07927 101.23754 36815 ft 459 kts 163°
2026-04-25 08:26 4.01769 101.25542 36818 ft 459 kts 163°
2026-04-25 08:26 3.95578 101.27338 36818 ft 458 kts 163°
2026-04-25 08:27 3.89437 101.29120 36819 ft 459 kts 163°
2026-04-25 08:27 3.83235 101.30920 36817 ft 459 kts 163°
2026-04-25 08:28 3.77085 101.32730 36813 ft 459 kts 162°
2026-04-25 08:28 3.70975 101.34562 36811 ft 458 kts 162°
2026-04-25 08:29 3.64837 101.36401 36812 ft 457 kts 163°
2026-04-25 08:29 3.58704 101.38238 36812 ft 457 kts 162°
2026-04-25 08:30 3.52583 101.40070 36811 ft 457 kts 162°
2026-04-25 08:30 3.46475 101.41899 36811 ft 456 kts 162°
2026-04-25 08:31 3.40367 101.43728 36806 ft 456 kts 162°
2026-04-25 08:31 3.34239 101.45562 36805 ft 456 kts 162°
2026-04-25 08:32 3.28355 101.47960 36803 ft 455 kts 154°
2026-04-25 08:32 3.22569 101.50641 36807 ft 455 kts 154°
2026-04-25 08:33 3.16790 101.53315 36805 ft 455 kts 154°
2026-04-25 08:33 3.10998 101.55992 36804 ft 455 kts 154°
2026-04-25 08:34 3.05235 101.58655 36806 ft 454 kts 154°
2026-04-25 08:34 2.99431 101.61335 36808 ft 455 kts 154°
2026-04-25 08:35 2.93678 101.63992 36813 ft 454 kts 154°
2026-04-25 08:35 2.87888 101.66663 36812 ft 455 kts 154°
2026-04-25 08:36 2.82121 101.69325 36806 ft 455 kts 154°
2026-04-25 08:36 2.76361 101.71982 36804 ft 455 kts 154°
2026-04-25 08:37 2.70605 101.74670 36811 ft 455 kts 153°
2026-04-25 08:37 2.64852 101.77473 36810 ft 456 kts 153°
2026-04-25 08:38 2.59123 101.80269 36810 ft 455 kts 152°
2026-04-25 08:38 2.53847 101.83744 36816 ft 453 kts 139°
2026-04-25 08:39 2.49577 101.88406 36813 ft 453 kts 127°
2026-04-25 08:39 2.45778 101.93450 36809 ft 453 kts 127°
2026-04-25 08:40 2.41991 101.98474 36805 ft 453 kts 127°
2026-04-25 08:40 2.38162 102.03554 36802 ft 453 kts 127°
2026-04-25 08:41 2.34359 102.08600 36806 ft 453 kts 126°
2026-04-25 08:41 2.30549 102.13655 36800 ft 453 kts 127°
2026-04-25 08:42 2.26751 102.18694 36795 ft 453 kts 127°
2026-04-25 08:42 2.22957 102.23728 36795 ft 453 kts 126°
2026-04-25 08:43 2.19163 102.28762 36796 ft 452 kts 127°
2026-04-25 08:43 2.15351 102.33819 36735 ft 454 kts 126°
2026-04-25 08:43 2.13435 102.36362 36250 ft 459 kts 126°
2026-04-25 08:44 2.11506 102.38921 35697 ft 458 kts 126°
2026-04-25 08:44 2.09588 102.41465 35131 ft 457 kts 126°
2026-04-25 08:44 2.07679 102.43998 34545 ft 457 kts 126°
2026-04-25 08:44 2.05744 102.46564 33939 ft 459 kts 126°
2026-04-25 08:45 2.03835 102.49097 33334 ft 461 kts 126°
2026-04-25 08:45 2.01878 102.51692 32718 ft 461 kts 126°
2026-04-25 08:45 1.99962 102.54237 32139 ft 458 kts 126°
2026-04-25 08:45 1.98038 102.56791 31509 ft 454 kts 126°
2026-04-25 08:46 1.96151 102.59296 30921 ft 449 kts 126°
2026-04-25 08:46 1.94269 102.61794 30328 ft 444 kts 126°
2026-04-25 08:46 1.92414 102.64258 29721 ft 440 kts 126°
2026-04-25 08:46 1.90563 102.66714 29145 ft 436 kts 126°
2026-04-25 08:47 1.88770 102.69095 28571 ft 433 kts 126°
2026-04-25 08:47 1.86952 102.71508 27994 ft 430 kts 126°
2026-04-25 08:47 1.85149 102.73901 27418 ft 425 kts 126°
2026-04-25 08:47 1.83378 102.76253 26850 ft 421 kts 126°
2026-04-25 08:48 1.81617 102.78590 26288 ft 418 kts 126°
2026-04-25 08:48 1.79884 102.80890 25749 ft 414 kts 126°
2026-04-25 08:48 1.78167 102.83170 25208 ft 411 kts 125°
2026-04-25 08:48 1.76448 102.85451 24672 ft 407 kts 125°
2026-04-25 08:49 1.74755 102.87698 24143 ft 404 kts 125°
2026-04-25 08:49 1.73172 102.90017 23815 ft 396 kts 117°
2026-04-25 08:49 1.71897 102.92414 23784 ft 396 kts 116°
2026-04-25 08:49 1.70585 102.94891 23354 ft 404 kts 116°
2026-04-25 08:50 1.69280 102.97342 22819 ft 399 kts 116°
2026-04-25 08:50 1.67985 102.99774 22270 ft 393 kts 116°
2026-04-25 08:50 1.66709 103.02171 21608 ft 391 kts 116°
2026-04-25 08:50 1.65428 103.04578 20784 ft 393 kts 116°
2026-04-25 08:51 1.64142 103.06992 20203 ft 386 kts 116°
2026-04-25 08:51 1.62906 103.09312 19694 ft 379 kts 116°
2026-04-25 08:51 1.61671 103.11629 19207 ft 371 kts 116°
2026-04-25 08:51 1.60472 103.13888 18743 ft 363 kts 116°
2026-04-25 08:52 1.59301 103.16098 18291 ft 359 kts 116°
2026-04-25 08:52 1.58116 103.18336 17835 ft 360 kts 116°
2026-04-25 08:52 1.56951 103.20535 17387 ft 358 kts 116°
2026-04-25 08:52 1.55784 103.22739 16939 ft 355 kts 116°
2026-04-25 08:53 1.54629 103.24918 16261 ft 357 kts 116°
2026-04-25 08:53 1.53474 103.27098 15735 ft 351 kts 116°
2026-04-25 08:53 1.52353 103.29212 15253 ft 345 kts 116°
2026-04-25 08:53 1.51241 103.31310 14799 ft 342 kts 116°
2026-04-25 08:54 1.50118 103.33431 14275 ft 344 kts 116°
2026-04-25 08:54 1.48979 103.35548 13564 ft 347 kts 117°
2026-04-25 08:54 1.47835 103.37649 12820 ft 348 kts 117°
2026-04-25 08:54 1.46694 103.39826 12053 ft 347 kts 112°
2026-04-25 08:55 1.46103 103.42146 11309 ft 345 kts 94°
2026-04-25 08:55 1.46235 103.44508 10552 ft 342 kts 82°
2026-04-25 08:55 1.46572 103.46862 10039 ft 332 kts 81°
2026-04-25 08:55 1.46886 103.49100 9892 ft 313 kts 81°
2026-04-25 08:56 1.47178 103.51188 9773 ft 296 kts 81°
2026-04-25 08:56 1.47460 103.53198 9671 ft 282 kts 81°
2026-04-25 08:56 1.47730 103.55126 9396 ft 282 kts 81°
2026-04-25 08:56 1.48002 103.57066 9009 ft 279 kts 81°
2026-04-25 08:57 1.48274 103.59008 8553 ft 278 kts 81°
2026-04-25 08:57 1.48544 103.60927 8142 ft 276 kts 81°
2026-04-25 08:57 1.48807 103.62800 7758 ft 273 kts 81°
2026-04-25 08:57 1.49071 103.64682 7361 ft 271 kts 81°
2026-04-25 08:58 1.49334 103.66563 6962 ft 270 kts 81°
2026-04-25 08:58 1.49598 103.68441 6572 ft 269 kts 81°
2026-04-25 08:58 1.49856 103.70283 6190 ft 266 kts 81°
2026-04-25 08:58 1.50043 103.72099 6008 ft 254 kts 84°
2026-04-25 08:59 1.50178 103.73798 5888 ft 241 kts 84°
2026-04-25 08:59 1.50314 103.75470 5648 ft 235 kts 84°
2026-04-25 08:59 1.50444 103.77083 5403 ft 229 kts 84°
2026-04-25 08:59 1.50571 103.78648 5158 ft 225 kts 84°
2026-04-25 09:00 1.50696 103.80191 4993 ft 216 kts 84°
2026-04-25 09:00 1.50813 103.81651 4819 ft 207 kts 84°
2026-04-25 09:00 1.50926 103.83067 4513 ft 198 kts 84°
2026-04-25 09:00 1.51022 103.84420 4185 ft 192 kts 84°
2026-04-25 09:01 1.51341 103.85678 3851 ft 185 kts 57°
2026-04-25 09:01 1.52326 103.86483 3544 ft 181 kts 32°
2026-04-25 09:01 1.53424 103.87073 3280 ft 174 kts 30°
2026-04-25 09:01 1.54493 103.87635 3013 ft 169 kts 30°
2026-04-25 09:02 1.55517 103.88196 2739 ft 164 kts 37°
2026-04-25 09:02 1.56088 103.89117 2442 ft 159 kts 84°
2026-04-25 09:02 1.55690 103.90112 2227 ft 161 kts 135°
2026-04-25 09:02 1.54602 103.90473 2053 ft 170 kts 172°
2026-04-25 09:03 1.53416 103.90623 2000 ft 171 kts 166°
2026-04-25 09:03 1.52235 103.90850 2019 ft 172 kts 162°
2026-04-25 09:03 1.51101 103.91145 2016 ft 158 kts 160°
2026-04-25 09:03 1.50033 103.91425 1804 ft 152 kts 160°
2026-04-25 09:04 1.49019 103.91462 1620 ft 145 kts 190°
2026-04-25 09:04 1.48117 103.91010 1432 ft 144 kts 212°
2026-04-25 09:04 1.47275 103.90436 1224 ft 143 kts 213°
2026-04-25 09:04 1.46446 103.89885 1039 ft 141 kts 212°
2026-04-25 09:05 1.45623 103.89346 841 ft 143 kts 212°
2026-04-25 09:05 1.44771 103.88791 671 ft 145 kts 212°
2026-04-25 09:05 1.43938 103.88236 484 ft 140 kts 212°
2026-04-25 09:05 1.43114 103.87692 310 ft 141 kts 213°
2026-04-25 09:06 1.42301 103.87161 102 ft 138 kts 213°
2026-04-25 09:06 1.41555 103.86674 52 ft 111 kts 213°
2026-04-25 09:06 1.41078 103.86358 51 ft 56 kts 211°
2026-04-25 09:06 1.40903 103.86252 51 ft 14 kts 201°
2026-04-25 09:07 1.40835 103.86266 51 ft 12 kts 123°
2026-04-25 09:07 1.40806 103.86317 51 ft 7 kts 121°
2026-04-25 09:07 1.40789 103.86347 51 ft 4 kts 105°
2026-04-25 09:07 1.40811 103.86379 51 ft 8 kts 31°
2026-04-25 09:08 1.40871 103.86416 51 ft 11 kts 32°
2026-04-25 09:08 1.40924 103.86449 51 ft 5 kts 32°
2026-04-25 09:08 1.40962 103.86473 51 ft 5 kts 36°
2026-04-25 09:08 1.40961 103.86518 51 ft 9 kts 122°
2026-04-25 09:09 1.40942 103.86568 51 ft 6 kts 62°
2026-04-25 09:09 1.40990 103.86601 51 ft 10 kts 30°
2026-04-25 09:09 1.41033 103.86621 51 ft 4 kts 333°
2026-04-25 09:09 1.41050 103.86594 51 ft 4 kts 302°
2026-04-25 09:10 1.41054 103.86588 51 ft 0 kts 302°